Content
SEND FEEDBACK

Daily
Averages
Monthly
Summary
United States of America

TRENTON, NORTH DAKOTA


Home > North America > United States > North Dakota
Elevation: 192 feet     Latitude: 48 01N     Longitude: 104 08W

WEATHER
 
SELECT A DAY
Number of Records: 463,630;   Date Range: 1/1/95 - 12/25/14
 
SHARE

PRINT THIS DATA

[ ← Previous Day ]
WEATHER ALMANAC - FEBRUARY 13, 2013
[ Next Day → ]
[ °C ]   °F
Weather ElementAverageHighLow
Temperature35.1 °F39.2 °F (12:15 pm)30.2 °F (12:35 am)
Dewpoint28.5 °F32 °F (6:55 am)21.2 °F (8:35 pm)
Humidity77.1 %93 % (3:15 am)64 % (8:35 pm)
Barometer29.73 in29.88 in (10:15 pm)29.62 in (4:55 am)
Wind Speed17.7 mph28.8 mph (8:15 pm)
Wind Gust35.7 mph (8:15 pm)
Weather ElementAverage
Visibility10 mi
Wind DirectionWNW (276.3 °)

Weather ElementTotal
Precipitation---
Heating Degree Days30.3 (Base 65)
Averaged from 64 records on February 13, 2013
WEATHER CONDITIONS BREAKOUT
WIND DIRECTION BREAKOUT
WEATHER BY HOUR - FEBRUARY 13, 2013
[ °C ]   °F
Local TimeTemperatureDewpointHumidityBarometerVisibilityWind DirectionWind SpeedGust SpeedPrecipitationEventsConditions
12:35 AM30.2 °F24.8 °F80 %29.75 in10.0 miSSW (210°)4.6 mphOvercast
12:55 AM30.2 °F26.6 °F86 %29.73 in10.0 miSSW (200°)6.9 mphScattered Clouds
1:15 AM30.2 °F26.6 °F86 %29.73 in10.0 miSSW (200°)6.9 mphMostly Cloudy
1:35 AM30.2 °F26.6 °F86 %29.71 in10.0 miSSW (210°)6.9 mphOvercast
1:55 AM30.2 °F26.6 °F86 %29.71 in10.0 miSSW (200°)10.4 mphMostly Cloudy
2:35 AM30.2 °F26.6 °F86 %29.68 in10.0 miSSW (200°)9.2 mphOvercast
2:55 AM30.2 °F26.6 °F86 %29.68 in10.0 miSSW (200°)9.2 mphOvercast
3:15 AM30.2 °F28.4 °F93 %29.67 in10.0 miSouth (190°)6.9 mphOvercast
3:35 AM30.2 °F28.4 °F93 %29.66 in10.0 miSouth (190°)4.6 mphOvercast
3:55 AM35.6 °F30.2 °F81 %29.65 in10.0 miWest (270°)12.7 mph18.4 mphOvercast
4:15 AM37.4 °F30.2 °F75 %29.64 in10.0 miWest (280°)16.1 mph26.5 mphOvercast
4:35 AM37.4 °F30.2 °F75 %29.64 in10.0 miWest (270°)15.0 mph23.0 mphOvercast
4:55 AM35.6 °F30.2 °F81 %29.62 in10.0 miWest (260°)15.0 mphOvercast
5:15 AM37.4 °F30.2 °F75 %29.63 in10.0 miWest (270°)17.3 mph26.5 mphOvercast
5:35 AM37.4 °F30.2 °F75 %29.63 in10.0 miWest (280°)17.3 mph21.9 mphOvercast
5:55 AM37.4 °F30.2 °F75 %29.62 in10.0 miWNW (290°)16.1 mphMostly Cloudy
6:15 AM35.6 °F30.2 °F81 %29.62 in10.0 miWNW (300°)17.3 mph23.0 mphMostly Cloudy
6:35 AM35.6 °F30.2 °F81 %29.62 in9.0 miWNW (290°)19.6 mph25.3 mphMostly Cloudy
6:55 AM33.8 °F32.0 °F93 %29.63 in10.0 miWNW (290°)16.1 mph24.2 mphOvercast
7:15 AM35.6 °F32.0 °F87 %29.63 in10.0 miWest (280°)16.1 mphOvercast
7:35 AM35.6 °F32.0 °F87 %29.62 in10.0 miWest (280°)21.9 mph25.3 mphMostly Cloudy
7:55 AM35.6 °F32.0 °F87 %29.63 in10.0 miWest (280°)20.7 mph25.3 mphMostly Cloudy
8:15 AM35.6 °F32.0 °F87 %29.63 in10.0 miWest (280°)21.9 mph26.5 mphMostly Cloudy
8:35 AM37.4 °F30.2 °F75 %29.64 in10.0 miWest (280°)18.4 mph26.5 mphScattered Clouds
8:55 AM37.4 °F30.2 °F75 %29.65 in10.0 miWest (280°)19.6 mph24.2 mphScattered Clouds
9:15 AM37.4 °F30.2 °F75 %29.65 in10.0 miWNW (290°)19.6 mph25.3 mphPartly Cloudy
9:35 AM37.4 °F30.2 °F75 %29.66 in10.0 miWNW (290°)17.3 mph25.3 mphClear
9:55 AM37.4 °F30.2 °F75 %29.66 in10.0 miWNW (290°)20.7 mph24.2 mphClear
10:15 AM37.4 °F30.2 °F75 %29.67 in10.0 miWNW (290°)23.0 mph28.8 mphClear
10:35 AM37.4 °F30.2 °F75 %29.67 in10.0 miWNW (290°)19.6 mph25.3 mphPartly Cloudy
10:55 AM37.4 °F30.2 °F75 %29.68 in10.0 miWNW (290°)20.7 mph25.3 mphScattered Clouds
11:15 AM37.4 °F30.2 °F75 %29.69 in10.0 miWNW (290°)17.3 mph24.2 mphMostly Cloudy
11:35 AM37.4 °F30.2 °F75 %29.69 in10.0 miWNW (290°)20.7 mph27.6 mphPartly Cloudy
11:55 AM37.4 °F30.2 °F75 %29.70 in10.0 miWNW (290°)19.6 mph23.0 mphClear
12:15 PM39.2 °F30.2 °F70 %29.70 in10.0 miWNW (290°)16.1 mph20.7 mphMostly Cloudy
12:35 PM39.2 °F30.2 °F70 %29.71 in10.0 miWNW (300°)15.0 mphOvercast
12:55 PM39.2 °F30.2 °F70 %29.71 in10.0 miWNW (290°)17.3 mphOvercast
1:15 PM39.2 °F30.2 °F70 %29.72 in10.0 miWNW (290°)19.6 mph23.0 mphOvercast
1:55 PM39.2 °F30.2 °F70 %29.72 in10.0 miWNW (290°)21.9 mph27.6 mphOvercast
2:15 PM39.2 °F30.2 °F70 %29.73 in10.0 miWNW (300°)19.6 mph26.5 mphOvercast
2:55 PM39.2 °F30.2 °F70 %29.75 in10.0 miWNW (300°)18.4 mph27.6 mphOvercast
3:15 PM39.2 °F30.2 °F70 %29.76 in10.0 miWNW (300°)15.0 mphOvercast
3:35 PM37.4 °F30.2 °F75 %29.77 in10.0 miWNW (300°)18.4 mphOvercast
3:55 PM37.4 °F30.2 °F75 %29.77 in10.0 miWNW (290°)19.6 mph27.6 mphOvercast
4:35 PM37.4 °F28.4 °F70 %29.79 in10.0 miWNW (300°)24.2 mph28.8 mphOvercast
4:55 PM35.6 °F30.2 °F81 %29.80 in10.0 miNW (310°)24.2 mph31.1 mphOvercast
5:15 PM35.6 °F30.2 °F81 %29.80 in10.0 miWNW (300°)19.6 mph24.2 mphMostly Cloudy
5:35 PM35.6 °F28.4 °F75 %29.81 in10.0 miNW (310°)18.4 mph25.3 mphPartly Cloudy
5:55 PM35.6 °F28.4 °F75 %29.82 in10.0 miWNW (300°)18.4 mph24.2 mphClear
6:15 PM35.6 °F28.4 °F75 %29.83 in10.0 miWNW (300°)18.4 mph21.9 mphClear
6:35 PM35.6 °F28.4 °F75 %29.82 in10.0 miWNW (290°)19.6 mph25.3 mphClear
6:55 PM35.6 °F28.4 °F75 %29.83 in10.0 miWNW (290°)19.6 mph23.0 mphClear
7:15 PM35.6 °F28.4 °F75 %29.84 in10.0 miWNW (290°)19.6 mph27.6 mphClear
7:35 PM33.8 °F26.6 °F75 %29.84 in10.0 miWNW (300°)17.3 mph25.3 mphPartly Cloudy
7:55 PM33.8 °F28.4 °F81 %29.85 in10.0 miWNW (290°)24.2 mph31.1 mphPartly Cloudy
8:15 PM33.8 °F24.8 °F70 %29.86 in10.0 miWNW (300°)28.8 mph35.7 mphScattered Clouds
8:35 PM32.0 °F21.2 °F64 %29.86 in10.0 miWNW (290°)21.9 mph29.9 mphPartly Cloudy
8:55 PM30.2 °F23.0 °F75 %29.87 in10.0 miWNW (290°)16.1 mph25.3 mphMostly Cloudy
9:15 PM30.2 °F21.2 °F69 %29.86 in10.0 miWest (280°)23.0 mph28.8 mphMostly Cloudy
9:55 PM30.2 °F21.2 °F69 %29.87 in10.0 miWest (280°)23.0 mph31.1 mphOvercast
10:15 PM30.2 °F21.2 °F69 %29.88 in10.0 miWest (280°)19.6 mph27.6 mphOvercast
10:35 PM30.2 °F23.0 °F75 %29.88 in10.0 miWest (280°)20.7 mph28.8 mphOvercast
10:55 PM30.2 °F23.0 °F75 %29.88 in10.0 miWest (270°)24.2 mph32.2 mphOvercast
11:15 PM30.2 °F23.0 °F75 %29.88 in10.0 miWNW (290°)25.3 mph35.7 mphOvercast
Hourly data recorded from KSDY, located miles away from Trenton, North Dakota







STORIES FROM OUR PARTNERS